| time (UTC) | temp F | wind direction | speed knots | gust knots | rain 1hr in | rain 24hr in | rain mn in | humidity % | barometer mb |
| 20260504185049 | 64 | 262 | 11.3 | 16.5 | 0.00 | 0.00 | 0.00 | 45 | 1006.2 |
| 20260504184533 | 63 | 245 | 10.4 | 16.5 | 0.00 | 0.00 | 0.00 | 45 | 1006.3 |
| 20260504184048 | 63 | 283 | 9.6 | 16.5 | 0.00 | 0.00 | 0.00 | 44 | 1006.3 |
| 20260504183518 | 63 | 228 | 9.6 | 14.8 | 0.00 | 0.00 | 0.00 | 47 | 1006.3 |
| 20260504183019 | 63 | 248 | 9.6 | 15.6 | 0.00 | 0.00 | 0.00 | 48 | 1006.5 |
| 20260504182518 | 63 | 236 | 12.2 | 15.6 | 0.00 | 0.00 | 0.00 | 45 | 1006.6 |
| 20260504182030 | 63 | 241 | 13.0 | 16.5 | 0.00 | 0.00 | 0.00 | 44 | 1006.6 |
| 20260504181550 | 62 | 269 | 7.8 | 15.6 | 0.00 | 0.00 | 0.00 | 47 | 1006.5 |
| 20260504181036 | 63 | 273 | 9.6 | 15.6 | 0.00 | 0.00 | 0.00 | 44 | 1006.6 |
| 20260504180529 | 62 | 234 | 8.7 | 15.6 | 0.00 | 0.00 | 0.00 | 43 | 1006.5 |
| 20260504180041 | 62 | 209 | 9.6 | 15.6 | 0.00 | 0.00 | 0.00 | 46 | 1006.6 |
| 20260504175550 | 62 | 271 | 8.7 | 20.9 | 0.00 | 0.00 | 0.00 | 45 | 1006.7 |
| 20260504175026 | 62 | 261 | 13.0 | 20.9 | 0.00 | 0.00 | 0.00 | 45 | 1006.8 |
| 20260504174542 | 62 | 277 | 7.8 | 13.9 | 0.00 | 0.00 | 0.00 | 44 | 1006.7 |
| 20260504174033 | 62 | 265 | 9.6 | 15.6 | 0.00 | 0.00 | 0.00 | 46 | 1006.6 |
| 20260504173540 | 61 | 242 | 10.4 | 15.6 | 0.00 | 0.00 | 0.00 | 47 | 1006.8 |
| 20260504173054 | 61 | 276 | 12.2 | 19.1 | 0.00 | 0.00 | 0.00 | 44 | 1006.8 |
| 20260504172542 | 61 | 279 | 9.6 | 19.1 | 0.00 | 0.00 | 0.00 | 43 | 1006.8 |
| 20260504172019 | 61 | 261 | 11.3 | 17.4 | 0.00 | 0.00 | 0.00 | 47 | 1006.8 |
| 20260504171549 | 61 | 273 | 9.6 | 17.4 | 0.00 | 0.00 | 0.00 | 43 | 1006.7 |
| 20260504171018 | 61 | 232 | 12.2 | 18.2 | 0.00 | 0.00 | 0.00 | 47 | 1007.0 |
| 20260504170525 | 61 | 246 | 13.9 | 18.2 | 0.00 | 0.00 | 0.00 | 46 | 1006.9 |
| 20260504151025 | 57 | 288 | 11.3 | 18.2 | 0.00 | 0.00 | 0.00 | 55 | 1008.0 |
| 20260504150523 | 57 | 251 | 13.9 | 18.2 | 0.00 | 0.00 | 0.00 | 53 | 1008.1 |
| 20260504141018 | 56 | 286 | 9.6 | 15.6 | 0.00 | 0.00 | 0.00 | 57 | 1008.3 |
| 20260504140546 | 56 | 247 | 9.6 | 17.4 | 0.00 | 0.00 | 0.00 | 55 | 1008.4 |
| 20260504130528 | 53 | 273 | 8.7 | 13.9 | 0.00 | 0.00 | 0.00 | 62 | 1008.7 |
| 20260504110545 | 44 | 228 | 2.6 | 5.2 | 0.00 | 0.00 | 0.00 | 75 | 1009.1 |
| 20260504100525 | 42 | 110 | 0.0 | 1.7 | 0.00 | 0.00 | 0.00 | 79 | 1009.0 |
| 20260504081523 | 46 | 266 | 5.2 | 6.1 | 0.00 | 0.00 | 0.00 | 69 | 1009.0 |
| 20260504081018 | 46 | 286 | 4.3 | 5.2 | 0.00 | 0.00 | 0.00 | 68 | 1008.9 |
| 20260504080527 | 46 | 262 | 4.3 | 6.1 | 0.00 | 0.00 | 0.00 | 67 | 1008.9 |
| 20260504050550 | 35 | 304 | 0.0 | 0.0 | 0.00 | 0.00 | 0.00 | 92 | 1008.9 |
| 20260504045535 | 35 | 304 | 0.0 | 0.0 | 0.00 | 0.00 | 0.00 | 92 | 1009.0 |
| 20260504045024 | 34 | 304 | 0.0 | 0.0 | 0.00 | 0.00 | 0.00 | 92 | 1009.0 |
| 20260504044518 | 34 | 304 | 0.0 | 0.0 | 0.00 | 0.00 | 0.00 | 92 | 1009.0 |
| 20260504044031 | 34 | 304 | 0.0 | 0.0 | 0.00 | 0.00 | 0.00 | 93 | 1009.1 |
| 20260504043522 | 33 | 304 | 0.0 | 0.0 | 0.00 | 0.00 | 0.00 | 93 | 1009.1 |
| 20260504043023 | 33 | 304 | 0.0 | 0.0 | 0.00 | 0.00 | 0.00 | 94 | 1009.1 |
| 20260504042552 | 33 | 304 | 0.0 | 0.0 | 0.00 | 0.00 | 0.00 | 93 | 1009.1 |
| 20260504042024 | 32 | 304 | 0.0 | 0.0 | 0.00 | 0.00 | 0.00 | 93 | 1009.0 |
| 20260504041521 | 32 | 304 | 0.0 | 0.0 | 0.00 | 0.00 | 0.00 | 93 | 1009.1 |
| 20260504041034 | 32 | 304 | 0.0 | 0.0 | 0.00 | 0.00 | 0.00 | 93 | 1009.0 |
| 20260504040543 | 32 | 304 | 0.0 | 0.0 | 0.00 | 0.00 | 0.00 | 92 | 1008.8 |
| 20260504040020 | 32 | 304 | 0.0 | 0.0 | 0.00 | 0.00 | 0.00 | 92 | 1008.8 |
| 20260504035531 | 32 | 304 | 0.0 | 0.0 | 0.00 | 0.00 | 0.00 | 92 | 1008.9 |
| 20260504035028 | 32 | 304 | 0.0 | 0.0 | 0.00 | 0.00 | 0.00 | 91 | 1008.9 |
| 20260504034522 | 32 | 304 | 0.0 | 0.0 | 0.00 | 0.00 | 0.00 | 91 | 1008.7 |
| 20260504034027 | 32 | 304 | 0.0 | 0.0 | 0.00 | 0.00 | 0.00 | 91 | 1008.7 |
| 20260504033536 | 32 | 304 | 0.0 | 0.0 | 0.00 | 0.00 | 0.00 | 90 | 1008.7 |
| 20260504033030 | 32 | 304 | 0.0 | 0.0 | 0.00 | 0.00 | 0.00 | 90 | 1008.7 |
| 20260504032519 | 32 | 304 | 0.0 | 0.0 | 0.00 | 0.00 | 0.00 | 89 | 1008.6 |
| 20260504032018 | 32 | 304 | 0.0 | 0.0 | 0.00 | 0.00 | 0.00 | 89 | 1008.7 |
| 20260504031536 | 32 | 304 | 0.0 | 0.0 | 0.00 | 0.00 | 0.00 | 88 | 1008.6 |
| 20260504031051 | 32 | 304 | 0.0 | 0.0 | 0.00 | 0.00 | 0.00 | 88 | 1008.6 |
| 20260504030543 | 33 | 304 | 0.0 | 0.0 | 0.00 | 0.00 | 0.00 | 88 | 1008.5 |
| 20260504030021 | 33 | 304 | 0.0 | 0.0 | 0.00 | 0.00 | 0.00 | 88 | 1008.6 |
| 20260504025545 | 33 | 304 | 0.0 | 0.9 | 0.00 | 0.00 | 0.00 | 87 | 1008.6 |
| 20260504025033 | 33 | 304 | 0.0 | 0.9 | 0.00 | 0.00 | 0.00 | 86 | 1008.6 |
| 20260504024520 | 33 | 296 | 0.0 | 0.0 | 0.00 | 0.00 | 0.00 | 86 | 1008.6 |
| 20260504024036 | 34 | 296 | 0.0 | 0.0 | 0.00 | 0.00 | 0.00 | 86 | 1008.6 |
| 20260504023528 | 34 | 296 | 0.0 | 0.0 | 0.00 | 0.00 | 0.00 | 85 | 1008.6 |
| 20260504023043 | 34 | 296 | 0.0 | 0.0 | 0.00 | 0.00 | 0.00 | 85 | 1008.5 |
| 20260504022539 | 34 | 296 | 0.0 | 0.0 | 0.00 | 0.00 | 0.00 | 85 | 1008.5 |
| 20260504022051 | 35 | 296 | 0.0 | 0.0 | 0.00 | 0.00 | 0.00 | 84 | 1008.5 |
| 20260504021529 | 35 | 296 | 0.0 | 0.0 | 0.00 | 0.00 | 0.00 | 83 | 1008.5 |
| 20260504021030 | 35 | 296 | 0.0 | 0.0 | 0.00 | 0.00 | 0.00 | 83 | 1008.4 |
| 20260504020546 | 35 | 296 | 0.0 | 0.0 | 0.00 | 0.00 | 0.00 | 83 | 1008.4 |
| 20260504020041 | 35 | 296 | 0.0 | 0.0 | 0.00 | 0.00 | 0.00 | 82 | 1008.4 |
| 20260504015531 | 36 | 296 | 0.0 | 0.0 | 0.00 | 0.00 | 0.00 | 82 | 1008.3 |
| 20260504015039 | 36 | 296 | 0.0 | 0.0 | 0.00 | 0.00 | 0.00 | 81 | 1008.3 |
| 20260504014520 | 36 | 296 | 0.0 | 0.0 | 0.00 | 0.00 | 0.00 | 81 | 1008.3 |
| 20260504014108 | 37 | 296 | 0.0 | 0.0 | 0.00 | 0.00 | 0.00 | 80 | 1008.2 |
| 20260504013526 | 37 | 296 | 0.0 | 0.0 | 0.00 | 0.00 | 0.00 | 80 | 1008.3 |
| 20260504013022 | 37 | 296 | 0.0 | 0.0 | 0.00 | 0.00 | 0.00 | 80 | 1008.2 |
| 20260504012555 | 38 | 296 | 0.0 | 0.0 | 0.00 | 0.00 | 0.00 | 80 | 1008.2 |
| 20260504012030 | 38 | 296 | 0.0 | 0.0 | 0.00 | 0.00 | 0.00 | 78 | 1008.1 |
| 20260504011544 | 38 | 296 | 0.0 | 0.0 | 0.00 | 0.00 | 0.00 | 77 | 1008.1 |
| 20260504011042 | 39 | 296 | 0.0 | 0.0 | 0.00 | 0.00 | 0.00 | 77 | 1008.0 |
| 20260504010546 | 39 | 296 | 0.0 | 0.0 | 0.00 | 0.00 | 0.00 | 77 | 1008.0 |
| 20260504010027 | 40 | 296 | 0.0 | 0.9 | 0.00 | 0.00 | 0.00 | 76 | 1007.9 |
| 20260504005532 | 40 | 296 | 0.0 | 0.9 | 0.00 | 0.00 | 0.00 | 73 | 1007.8 |
| 20260504005025 | 40 | 296 | 0.0 | 0.0 | 0.00 | 0.00 | 0.00 | 71 | 1007.7 |
| 20260504004605 | 41 | 296 | 0.0 | 0.0 | 0.00 | 0.00 | 0.00 | 70 | 1007.7 |
| 20260504004033 | 42 | 296 | 0.0 | 0.0 | 0.00 | 0.00 | 0.00 | 70 | 1007.6 |
| 20260504003542 | 42 | 296 | 0.0 | 0.9 | 0.00 | 0.00 | 0.00 | 67 | 1007.6 |
| 20260504003020 | 43 | 296 | 0.0 | 0.9 | 0.00 | 0.00 | 0.00 | 65 | 1007.5 |
| 20260504002604 | 44 | 296 | 0.0 | 0.0 | 0.00 | 0.00 | 0.00 | 56 | 1007.4 |
| 20260504002021 | 45 | 296 | 0.0 | 0.0 | 0.00 | 0.00 | 0.00 | 54 | 1007.4 |
| 20260504001600 | 45 | 296 | 0.0 | 0.0 | 0.00 | 0.00 | 0.00 | 54 | 1007.4 |
| 20260504001030 | 46 | 296 | 0.0 | 0.9 | 0.00 | 0.00 | 0.00 | 53 | 1007.3 |
| 20260504000520 | 46 | 296 | 0.0 | 1.7 | 0.00 | 0.00 | 0.00 | 53 | 1007.2 |
| 20260504000035 | 47 | 296 | 0.0 | 1.7 | 0.00 | 0.00 | 0.00 | 51 | 1007.2 |
| 20260503235546 | 47 | 296 | 0.0 | 2.6 | 0.00 | 0.00 | 0.00 | 51 | 1007.2 |
| 20260503235038 | 47 | 295 | 0.9 | 2.6 | 0.00 | 0.00 | 0.00 | 55 | 1007.2 |
| 20260503234535 | 47 | 293 | 1.7 | 5.2 | 0.00 | 0.00 | 0.00 | 52 | 1007.3 |
| 20260503234024 | 48 | 316 | 3.5 | 6.1 | 0.00 | 0.00 | 0.00 | 52 | 1007.2 |
| 20260503233519 | 48 | 294 | 4.3 | 6.1 | 0.00 | 0.00 | 0.00 | 49 | 1007.1 |
| 20260503233032 | 48 | 313 | 0.9 | 5.2 | 0.00 | 0.00 | 0.00 | 51 | 1007.1 |
| 20260503232544 | 48 | 299 | 0.9 | 5.2 | 0.00 | 0.00 | 0.00 | 49 | 1007.0 |
| 20260503232025 | 49 | 296 | 1.7 | 9.6 | 0.00 | 0.00 | 0.00 | 50 | 1007.0 |
| 20260503231522 | 49 | 309 | 5.2 | 9.6 | 0.00 | 0.00 | 0.00 | 50 | 1006.8 |
| 20260503231034 | 49 | 318 | 4.3 | 8.7 | 0.00 | 0.00 | 0.00 | 54 | 1006.8 |
| 20260503230532 | 49 | 295 | 6.1 | 12.2 | 0.00 | 0.00 | 0.00 | 53 | 1006.8 |
| 20260503230048 | 49 | 286 | 6.1 | 11.3 | 0.00 | 0.00 | 0.00 | 50 | 1006.7 |
| 20260503225528 | 49 | 277 | 5.2 | 10.4 | 0.00 | 0.00 | 0.00 | 48 | 1006.8 |
| 20260503225037 | 50 | 284 | 5.2 | 16.5 | 0.00 | 0.00 | 0.00 | 51 | 1006.6 |
| 20260503224557 | 50 | 324 | 4.3 | 12.2 | 0.00 | 0.00 | 0.00 | 50 | 1006.7 |
| 20260503224048 | 50 | 295 | 8.7 | 13.9 | 0.00 | 0.00 | 0.00 | 51 | 1006.6 |
| 20260503223523 | 49 | 299 | 8.7 | 13.9 | 0.00 | 0.00 | 0.00 | 49 | 1006.5 |
| 20260503223019 | 49 | 258 | 5.2 | 14.8 | 0.00 | 0.00 | 0.00 | 51 | 1006.6 |
| 20260503222531 | 49 | 306 | 10.4 | 14.8 | 0.00 | 0.00 | 0.00 | 51 | 1006.5 |
| 20260503222021 | 49 | 298 | 3.5 | 8.7 | 0.00 | 0.00 | 0.00 | 51 | 1006.5 |
| 20260503221532 | 49 | 286 | 3.5 | 10.4 | 0.00 | 0.00 | 0.00 | 48 | 1006.4 |
| 20260503221028 | 49 | 273 | 4.3 | 10.4 | 0.00 | 0.00 | 0.00 | 49 | 1006.3 |
| 20260503220541 | 49 | 302 | 3.5 | 10.4 | 0.00 | 0.00 | 0.00 | 48 | 1006.4 |
| 20260503220020 | 49 | 304 | 4.3 | 10.4 | 0.00 | 0.00 | 0.00 | 50 | 1006.4 |
| 20260503215532 | 49 | 299 | 1.7 | 10.4 | 0.00 | 0.00 | 0.00 | 49 | 1006.4 |
| 20260503215031 | 48 | 243 | 3.5 | 10.4 | 0.00 | 0.00 | 0.00 | 48 | 1006.4 |
| 20260503214527 | 48 | 276 | 4.3 | 8.7 | 0.00 | 0.00 | 0.00 | 52 | 1006.5 |
| 20260503214035 | 48 | 153 | 1.7 | 9.6 | 0.00 | 0.00 | 0.00 | 48 | 1006.4 |
| 20260503213524 | 48 | 329 | 3.5 | 9.6 | 0.00 | 0.00 | 0.00 | 50 | 1006.4 |
| 20260503213034 | 48 | 349 | 1.7 | 12.2 | 0.00 | 0.00 | 0.00 | 49 | 1006.3 |
| 20260503212539 | 49 | 330 | 5.2 | 12.2 | 0.00 | 0.00 | 0.00 | 47 | 1006.3 |
| 20260503212052 | 48 | 324 | 2.6 | 11.3 | 0.00 | 0.00 | 0.00 | 51 | 1006.3 |
| 20260503211545 | 48 | 286 | 4.3 | 10.4 | 0.00 | 0.00 | 0.00 | 53 | 1006.1 |
| 20260503211100 | 48 | 277 | 6.1 | 10.4 | 0.00 | 0.00 | 0.00 | 49 | 1006.2 |
| 20260503210533 | 48 | 317 | 3.5 | 10.4 | 0.00 | 0.00 | 0.00 | 48 | 1006.1 |
| 20260503210021 | 48 | 278 | 4.3 | 8.7 | 0.00 | 0.00 | 0.00 | 51 | 1006.0 |
| 20260503205549 | 48 | 271 | 3.5 | 8.7 | 0.00 | 0.00 | 0.00 | 49 | 1006.1 |
| 20260503205053 | 48 | 296 | 3.5 | 9.6 | 0.00 | 0.00 | 0.00 | 51 | 1006.0 |
| 20260503204537 | 48 | 270 | 4.3 | 11.3 | 0.00 | 0.00 | 0.00 | 48 | 1005.9 |
| 20260503204026 | 48 | 276 | 6.1 | 11.3 | 0.00 | 0.00 | 0.00 | 52 | 1006.0 |
| 20260503203539 | 48 | 304 | 4.3 | 9.6 | 0.00 | 0.00 | 0.00 | 52 | 1005.9 |
| 20260503203034 | 48 | 283 | 5.2 | 10.4 | 0.00 | 0.00 | 0.00 | 55 | 1005.9 |
| 20260503202546 | 48 | 291 | 3.5 | 10.4 | 0.00 | 0.00 | 0.00 | 52 | 1005.8 |
| 20260503202042 | 48 | 268 | 5.2 | 10.4 | 0.00 | 0.00 | 0.00 | 52 | 1005.8 |
| 20260503201526 | 48 | 291 | 3.5 | 13.0 | 0.00 | 0.00 | 0.00 | 55 | 1005.8 |
| 20260503201036 | 48 | 257 | 6.1 | 16.5 | 0.00 | 0.00 | 0.00 | 50 | 1005.7 |
| 20260503200533 | 48 | 289 | 6.1 | 13.0 | 0.00 | 0.00 | 0.00 | 49 | 1005.7 |
| 20260503200032 | 48 | 270 | 8.7 | 12.2 | 0.00 | 0.00 | 0.00 | 48 | 1005.7 |
| 20260503195541 | 48 | 313 | 6.1 | 13.0 | 0.00 | 0.00 | 0.00 | 49 | 1005.7 |
| 20260503195031 | 48 | 295 | 7.0 | 13.0 | 0.00 | 0.00 | 0.00 | 47 | 1005.7 |
| 20260503194528 | 49 | 297 | 5.2 | 10.4 | 0.00 | 0.00 | 0.00 | 50 | 1005.7 |
| 20260503194037 | 48 | 274 | 5.2 | 15.6 | 0.00 | 0.00 | 0.00 | 51 | 1005.7 |
| 20260503193530 | 48 | 265 | 6.1 | 15.6 | 0.00 | 0.00 | 0.00 | 48 | 1005.8 |
| 20260503193019 | 48 | 265 | 8.7 | 16.5 | 0.00 | 0.00 | 0.00 | 49 | 1005.7 |
| 20260503192527 | 48 | 248 | 6.1 | 13.9 | 0.00 | 0.00 | 0.00 | 52 | 1005.7 |
| 20260503192036 | 48 | 294 | 6.1 | 16.5 | 0.00 | 0.00 | 0.00 | 50 | 1005.6 |
| 20260503191519 | 49 | 267 | 4.3 | 16.5 | 0.00 | 0.00 | 0.00 | 49 | 1005.6 |
| 20260503191032 | 49 | 309 | 4.3 | 11.3 | 0.00 | 0.00 | 0.00 | 49 | 1005.5 |
| 20260503190528 | 49 | 5 | 2.6 | 12.2 | 0.00 | 0.00 | 0.00 | 48 | 1005.5 |
| 20260503190040 | 49 | 286 | 3.5 | 11.3 | 0.00 | 0.00 | 0.00 | 52 | 1005.5 |
| 20260503185528 | 48 | 267 | 7.8 | 17.4 | 0.00 | 0.00 | 0.00 | 52 | 1005.5 |